[[{"header":{"parameterUnit":"m.s-1","parameterCategory":2,"la1":30.2991,"la2":30.254,"lo1":-89.0895,"lo2":-89.0444,"dy":0.0017,"dx":0.0017,"nx":28,"ny":28,"refTime":"2025-03-18T09:00:00:Z","depth":"0","parameterNumber":2,"parameterNumberName":"U-component_of_CURRENTS"},"data":[0,0,0,0,0,0,0,0,0,0,0,0,0,0,0,0,0,0,0,0,0,0,0,0,0,0,0,0,0,0,0,0,0,0,0,0,0,0,0,0,0,0,0,0,0,0,0,0,0,0,0,0,0,0,0,0,0,0,-0.2194,-0.2195,0,-0.2241,-0.2242,-0.2242,-0.2237,-0.2236,-0.2236,-0.2235,-0.2205,-0.2205,-0.2205,0,0,0,0,0,0,0,0,0,0,0,0,0,-0.2119,-0.212,-0.2194,-0.2195,-0.2196,-0.2241,-0.2242,-0.2242,-0.2237,-0.2236,-0.2236,-0.2235,-0.2205,-0.2205,-0.2205,0,0,0,0,0,0,0,0,0,0,0,0,0,-0.2155,-0.2121,-0.2194,-0.2201,-0.2202,-0.2241,-0.2242,-0.2242,-0.2237,-0.2236,-0.2235,-0.2235,-0.2206,-0.2205,-0.2205,-0.2216,0,0,-0.2203,-0.2203,0,0,0,0,0,0,0,0,-0.2153,-0.2157,-0.2199,-0.2201,-0.2202,-0.2235,-0.2205,-0.2231,-0.2237,-0.222,-0.2235,-0.2234,-0.2211,-0.221,-0.2217,-0.2214,-0.2213,-0.2203,-0.2203,-0.2202,-0.2202,0,0,0,0,0,0,0,-0.215,-0.2155,-0.221,-0.22,-0.2202,-0.2209,-0.2212,-0.221,-0.2215,-0.2222,-0.2222,-0.2233,-0.221,-0.2217,-0.2216,-0.2212,-0.2203,-0.2202,-0.2202,-0.2202,-0.2229,-0.223,0,0,0,0,0,0,-0.2151,-0.2153,-0.2208,-0.2212,-0.2179,-0.2211,-0.2215,-0.2223,-0.2217,-0.2217,-0.2233,-0.2232,-0.2219,-0.2217,-0.2215,-0.2243,-0.2202,-0.2202,-0.2202,-0.2228,-0.2229,-0.223,0,0,0,0,0,0,-0.2149,-0.2155,-0.2207,-0.2186,-0.2193,-0.2213,-0.2222,-0.2224,-0.2234,-0.2227,-0.2225,-0.2241,-0.2218,-0.2216,-0.2225,-0.2241,-0.2202,-0.2201,-0.2227,-0.2228,-0.223,-0.2288,0,0,0,0,0,0,-0.2146,-0.2154,-0.2163,-0.2186,-0.2194,-0.2236,-0.2223,-0.2226,-0.2243,-0.2242,-0.2233,-0.223,-0.2217,-0.2227,-0.2225,-0.2239,-0.2201,-0.2225,-0.2227,-0.2229,-0.2285,-0.2292,-0.2297,0,0,0,0,0,-0.2143,-0.216,-0.2163,-0.217,-0.2205,-0.2238,-0.2243,-0.2252,-0.2244,-0.2256,-0.2253,-0.223,-0.2237,-0.2227,-0.2225,-0.2239,-0.2224,-0.2227,-0.2229,-0.2282,-0.229,-0.2297,0,0,0,0,0,0,-0.2136,-0.2162,-0.2165,-0.219,-0.2214,-0.2238,-0.2252,-0.2257,-0.2266,-0.226,-0.2247,-0.2244,-0.2258,-0.2243,-0.2232,-0.2253,-0.2226,-0.2228,-0.2267,-0.2274,-0.228,-0.2285,-0.22,0,0,0,0,0,-0.2139,-0.2154,-0.2182,-0.2203,-0.2214,-0.2233,-0.2248,-0.2255,-0.2267,-0.227,-0.2269,-0.2264,-0.2267,-0.2266,-0.2266,-0.2278,-0.2276,-0.2285,-0.2291,-0.2296,-0.23,-0.2318,-0.2326,-0.2238,-0.2238,-0.2238,0,0,-0.2144,-0.216,-0.217,-0.2202,-0.2218,-0.2249,-0.2239,-0.2265,-0.229,-0.2265,-0.2293,-0.2287,-0.2277,-0.2294,-0.2298,-0.2282,-0.2323,-0.2299,-0.2304,-0.2304,-0.2321,-0.233,-0.2337,-0.2239,-0.2239,-0.2239,0,0,-0.2162,-0.2173,-0.2192,-0.2215,-0.2244,-0.2262,-0.2271,-0.2299,-0.2308,-0.2337,-0.2325,-0.2332,-0.2337,-0.2338,-0.2337,-0.2376,-0.2358,-0.2371,-0.2404,-0.2422,-0.2429,-0.2436,-0.2457,-0.2465,-0.2371,-0.2371,-0.2372,0,-0.2169,-0.2194,-0.2204,-0.2231,-0.2254,-0.2269,-0.23,-0.2321,-0.235,-0.2363,-0.2351,-0.2375,-0.2361,-0.2387,-0.2397,-0.239,-0.2398,-0.2377,-0.243,-0.2436,-0.2442,-0.2462,-0.247,-0.2375,-0.2374,-0.2374,-0.2374,0,-0.2203,-0.2224,-0.2239,-0.2276,-0.2302,-0.2332,-0.2363,-0.2389,-0.24,-0.2419,-0.2448,-0.2441,-0.2451,-0.2449,-0.2433,-0.2466,-0.2459,-0.2439,-0.2412,-0.2455,-0.2473,-0.248,-0.2379,-0.2378,-0.2377,-0.2376,0,0,-0.2216,-0.2255,-0.226,-0.2279,-0.2327,-0.2351,-0.2397,-0.2443,-0.2472,-0.2495,-0.2533,-0.2537,-0.2529,-0.2526,-0.251,-0.2522,-0.2565,-0.2497,-0.2496,-0.2519,-0.2613,-0.2628,-0.2636,-0.2556,-0.2557,-0.2558,-0.2615,0,-0.2241,-0.2288,-0.2303,-0.2354,-0.2384,-0.2411,-0.2454,-0.2494,-0.2521,-0.2563,-0.2566,-0.2591,-0.2561,-0.2562,-0.2573,-0.2563,-0.2585,-0.2552,-0.2567,-0.2568,-0.2576,-0.2645,-0.2584,-0.2632,-0.2622,-0.2623,-0.2624,0,-0.2269,-0.2298,-0.2345,-0.239,-0.2405,-0.2439,-0.2501,-0.2541,-0.2599,-0.2617,-0.2645,-0.2649,-0.2671,-0.2637,-0.266,-0.264,-0.2634,-0.2629,-0.263,-0.2626,-0.2595,-0.2585,-0.2645,-0.2475,-0.2634,-0.2634,-0.2633,0,-0.2271,-0.2323,-0.2359,-0.2379,-0.2439,-0.2463,-0.2498,-0.2557,-0.2594,-0.2651,-0.2681,-0.2709,-0.2721,-0.2726,-0.2707,-0.2688,-0.2733,-0.2704,-0.272,-0.2721,-0.2663,-0.2657,-0.256,-0.2734,-0.2734,-0.2734,-0.2734,0,-0.2291,-0.2317,-0.2361,-0.2384,-0.2436,-0.2468,-0.2525,-0.2565,-0.2624,-0.2676,-0.2703,-0.2743,-0.2743,-0.2763,-0.2743,-0.2761,-0.2764,-0.2748,-0.2745,-0.2684,-0.2679,-0.2522,-0.2477,-0.2736,-0.2736,-0.2735,-0.2735,0,-0.2285,-0.2314,-0.2361,-0.2419,-0.2438,-0.2476,-0.2541,-0.2585,-0.2634,-0.2705,-0.2724,-0.2778,-0.2809,-0.2811,-0.2819,-0.2811,-0.2759,-0.282,-0.2753,-0.2743,-0.2611,-0.2574,-0.2608,-0.2538,-0.2866,-0.2867,-0.2867,0,-0.2292,-0.2309,-0.238,-0.2415,-0.2441,-0.2495,-0.2539,-0.2591,-0.2636,-0.2725,-0.276,-0.2814,-0.286,-0.2894,-0.2906,-0.2917,-0.2775,-0.2829,-0.2788,-0.2615,-0.257,-0.2582,-0.2519,-0.2735,-0.2734,-0.2734,-0.2734,0,-0.2298,-0.2316,-0.2351,-0.2429,-0.2477,-0.2526,-0.2583,-0.261,-0.2678,-0.2732,-0.2797,-0.2841,-0.2923,-0.2933,-0.2955,-0.292,-0.2725,-0.2825,-0.2652,-0.2481,-0.2482,-0.2406,-0.2684,-0.273,-0.2731,-0.2731,-0.2731,-0.2731,-0.2298,-0.2319,-0.2371,-0.2438,-0.2497,-0.2542,-0.2542,-0.2599,-0.2648,-0.271,-0.2799,-0.2852,-0.2883,-0.294,-0.2897,-0.2708,-0.2774,-0.2565,-0.2544,-0.2578,-0.2482,-0.2769,-0.2807,-0.2808,-0.2809,-0.2809,-0.281,0,-0.2308,-0.2326,-0.2383,-0.2448,-0.2498,-0.2534,-0.2562,-0.253,-0.2545,-0.266,-0.2727,-0.2787,-0.2758,-0.2698,-0.2579,-0.243,-0.2386,-0.226,-0.2194,-0.2149,-0.2383,-0.2339,-0.2269,-0.2269,-0.2269,-0.2269,-0.2269,-0.227,-0.2311,-0.2346,-0.2369,-0.2436,-0.2474,-0.2467,-0.2453,-0.2397,-0.2415,-0.2436,-0.2499,-0.2612,-0.2442,-0.2404,-0.212,-0.2035,-0.1882,-0.1908,-0.1845,-0.19,-0.1923,-0.1945,-0.1886,-0.1722,-0.1721,-0.1569,-0.1567,-0.1565]},{"header":{"parameterUnit":"m.s-1","parameterCategory":2,"la1":30.2991,"la2":30.254,"lo1":-89.0895,"lo2":-89.0444,"dy":0.0017,"dx":0.0017,"nx":28,"ny":28,"refTime":"2025-03-18T09:00:00:Z","depth":"0","parameterNumber":3,"parameterNumberName":"V-component_of_CURRENTS"},"data":[0,0,0,0,0,0,0,0,0,0,0,0,0,0,0,0,0,0,0,0,0,0,0,0,0,0,0,0,0,0,0,0,0,0,0,0,0,0,0,0,0,0,0,0,0,0,0,0,0,0,0,0,0,0,0,0,0,0,-0.0996,-0.0996,0,-0.0962,-0.0962,-0.0961,-0.0928,-0.0927,-0.0927,-0.0926,-0.0861,-0.086,-0.0859,0,0,0,0,0,0,0,0,0,0,0,0,0,-0.1028,-0.1028,-0.0996,-0.0996,-0.0996,-0.0962,-0.0962,-0.0961,-0.0928,-0.0927,-0.0927,-0.0926,-0.0862,-0.086,-0.0859,0,0,0,0,0,0,0,0,0,0,0,0,0,-0.1006,-0.1028,-0.0997,-0.0975,-0.0973,-0.0962,-0.0962,-0.0961,-0.0928,-0.0927,-0.0926,-0.0926,-0.0862,-0.086,-0.0858,-0.0859,0,0,-0.0852,-0.0851,0,0,0,0,0,0,0,0,-0.1007,-0.1005,-0.0979,-0.0977,-0.0974,-0.0949,-0.0949,-0.0925,-0.0928,-0.0945,-0.0926,-0.0926,-0.0888,-0.0884,-0.0879,-0.0855,-0.0853,-0.0852,-0.0851,-0.085,-0.0849,0,0,0,0,0,0,0,-0.1009,-0.1006,-0.0983,-0.0978,-0.0975,-0.0966,-0.0962,-0.0945,-0.092,-0.0943,-0.0941,-0.0937,-0.0887,-0.0881,-0.0877,-0.0852,-0.0852,-0.085,-0.0849,-0.0848,-0.0813,-0.0813,0,0,0,0,0,0,-0.1015,-0.1008,-0.0984,-0.0982,-0.099,-0.0966,-0.0961,-0.0957,-0.092,-0.0914,-0.0938,-0.0936,-0.0885,-0.088,-0.0875,-0.0873,-0.085,-0.0848,-0.0847,-0.0813,-0.0813,-0.0813,0,0,0,0,0,0,-0.1015,-0.1013,-0.0985,-0.0994,-0.099,-0.0966,-0.0962,-0.0957,-0.0951,-0.0917,-0.091,-0.0937,-0.0884,-0.0878,-0.0865,-0.087,-0.0847,-0.0845,-0.0812,-0.0813,-0.0813,-0.087,0,0,0,0,0,0,-0.1017,-0.1013,-0.1017,-0.0995,-0.099,-0.0985,-0.0962,-0.0957,-0.095,-0.0947,-0.0914,-0.0907,-0.0883,-0.0869,-0.0863,-0.0867,-0.0844,-0.0812,-0.0813,-0.0813,-0.0868,-0.0872,-0.0876,0,0,0,0,0,-0.1018,-0.1028,-0.1017,-0.1015,-0.0994,-0.0986,-0.0983,-0.0963,-0.0951,-0.0954,-0.0932,-0.0908,-0.0867,-0.0868,-0.0861,-0.0865,-0.0812,-0.0812,-0.0813,-0.0866,-0.0871,-0.0876,0,0,0,0,0,0,-0.1054,-0.1025,-0.1013,-0.1016,-0.1004,-0.098,-0.0984,-0.0968,-0.0953,-0.095,-0.0916,-0.0908,-0.0897,-0.0875,-0.0875,-0.0855,-0.0834,-0.0833,-0.0876,-0.0881,-0.0885,-0.0896,-0.0842,0,0,0,0,0,-0.1062,-0.1057,-0.1032,-0.1038,-0.1032,-0.1008,-0.1004,-0.0989,-0.0971,-0.0964,-0.0942,-0.0916,-0.0895,-0.0884,-0.0864,-0.0857,-0.0828,-0.0853,-0.0857,-0.0861,-0.0865,-0.0834,-0.0836,-0.0815,-0.0815,-0.0815,0,0,-0.1081,-0.1063,-0.1063,-0.1044,-0.1033,-0.1033,-0.1004,-0.1001,-0.1001,-0.0959,-0.0958,-0.0932,-0.0897,-0.0888,-0.0881,-0.087,-0.0851,-0.0862,-0.0865,-0.0867,-0.0835,-0.0837,-0.0839,-0.0816,-0.0816,-0.0816,0,0,-0.1114,-0.1098,-0.1102,-0.109,-0.1071,-0.1058,-0.1058,-0.1036,-0.1026,-0.1019,-0.0989,-0.097,-0.094,-0.0919,-0.0902,-0.0917,-0.0875,-0.0906,-0.0935,-0.0906,-0.0908,-0.0909,-0.0872,-0.0869,-0.0907,-0.0908,-0.0908,0,-0.1141,-0.1135,-0.1106,-0.1105,-0.11,-0.1072,-0.1078,-0.1068,-0.1047,-0.1038,-0.1026,-0.0981,-0.0955,-0.0937,-0.0942,-0.0927,-0.09,-0.0921,-0.0912,-0.0913,-0.0913,-0.0875,-0.0871,-0.091,-0.091,-0.091,-0.091,0,-0.1172,-0.1165,-0.117,-0.1155,-0.1148,-0.1151,-0.1128,-0.1124,-0.1106,-0.1089,-0.1069,-0.1035,-0.1005,-0.0994,-0.0973,-0.096,-0.0937,-0.0923,-0.0902,-0.0918,-0.0877,-0.0872,-0.0914,-0.0913,-0.0913,-0.0912,0,0,-0.1236,-0.1199,-0.12,-0.1191,-0.1171,-0.1168,-0.117,-0.1158,-0.1154,-0.1133,-0.1123,-0.1092,-0.1066,-0.1046,-0.1015,-0.0993,-0.097,-0.0963,-0.096,-0.0931,-0.0898,-0.0876,-0.0868,-0.0954,-0.0954,-0.0953,-0.0867,0,-0.1271,-0.1273,-0.1244,-0.1252,-0.1251,-0.1218,-0.1221,-0.1204,-0.1184,-0.1171,-0.1133,-0.1113,-0.1087,-0.107,-0.1046,-0.0987,-0.096,-0.0994,-0.0882,-0.0879,-0.0861,-0.0863,-0.0763,-0.0678,-0.0862,-0.0861,-0.0861,0,-0.1311,-0.1301,-0.1311,-0.1281,-0.1279,-0.1283,-0.1268,-0.1263,-0.1236,-0.1216,-0.1189,-0.1155,-0.112,-0.1096,-0.101,-0.1031,-0.0972,-0.0927,-0.0922,-0.088,-0.0848,-0.0691,-0.0662,-0.0379,-0.0853,-0.0853,-0.0854,0,-0.1364,-0.1346,-0.1353,-0.1346,-0.1318,-0.1317,-0.1306,-0.1281,-0.1277,-0.1245,-0.1235,-0.1183,-0.1156,-0.1084,-0.0999,-0.0997,-0.0903,-0.0882,-0.0805,-0.0802,-0.0684,-0.0672,-0.0372,-0.0822,-0.0822,-0.0822,-0.0822,0,-0.141,-0.1412,-0.1377,-0.1382,-0.1391,-0.1354,-0.1363,-0.1342,-0.1319,-0.1326,-0.1264,-0.1261,-0.1153,-0.1089,-0.1007,-0.0895,-0.0903,-0.0809,-0.0781,-0.0701,-0.0692,-0.0416,-0.0329,-0.0819,-0.082,-0.082,-0.0821,0,-0.1467,-0.1444,-0.1449,-0.1423,-0.1417,-0.1426,-0.1404,-0.1413,-0.1376,-0.1384,-0.1377,-0.1309,-0.1231,-0.112,-0.0997,-0.0901,-0.0654,-0.0757,-0.0671,-0.0636,-0.0303,-0.0227,-0.0012,0.0089,-0.0643,-0.0642,-0.0641,0,-0.1497,-0.1504,-0.1489,-0.1501,-0.1492,-0.1492,-0.1499,-0.1456,-0.1467,-0.1429,-0.1445,-0.1364,-0.1349,-0.1145,-0.0942,-0.0772,-0.0604,-0.0558,-0.0541,-0.0262,-0.0155,-0.0128,-0.0056,-0.0394,-0.0391,-0.0389,-0.0387,0,-0.1554,-0.1548,-0.1551,-0.158,-0.1591,-0.1597,-0.1601,-0.1616,-0.1581,-0.1589,-0.1596,-0.1578,-0.1355,-0.1136,-0.0874,-0.073,-0.0348,-0.0508,-0.0222,0.0057,0.0112,0.0216,-0.047,-0.0367,-0.0369,-0.037,-0.0371,-0.0372,-0.1599,-0.1617,-0.1632,-0.1666,-0.1683,-0.172,-0.1754,-0.1765,-0.1799,-0.1832,-0.1764,-0.1716,-0.1255,-0.0887,-0.0698,-0.0099,-0.0222,0.0092,0.0159,0.0161,0.0274,-0.038,-0.0255,-0.0256,-0.0257,-0.0258,-0.0259,0,-0.1664,-0.1683,-0.1718,-0.1761,-0.1819,-0.1801,-0.1842,-0.1889,-0.1971,-0.1939,-0.1963,-0.1491,-0.104,-0.0516,0.026,0.0572,0.0634,0.0758,0.089,0.0925,0.0385,0.0418,0.0699,0.0699,0.0699,0.0698,0.0698,0.0698,-0.1697,-0.1752,-0.1775,-0.189,-0.1925,-0.2018,-0.2061,-0.2118,-0.2104,-0.1994,-0.176,-0.1553,-0.0661,0.049,0.1263,0.1334,0.1575,0.1527,0.1606,0.1344,0.129,0.1238,0.1298,0.176,0.1761,0.2167,0.2171,0.2175]}],[{"header":{"parameterUnit":"m.s-1","parameterCategory":2,"la1":30.2991,"la2":30.254,"lo1":-89.0895,"lo2":-89.0444,"dy":0.0017,"dx":0.0017,"nx":28,"ny":28,"refTime":"2025-03-18T09:00:00:Z","depth":"2","parameterNumber":2,"parameterNumberName":"U-component_of_CURRENTS"},"data":[0,0,0,0,0,0,0,0,0,0,0,0,0,0,0,0,0,0,0,0,0,0,0,0,0,0,0,0,0,0,0,0,0,0,0,0,0,0,0,0,0,0,0,0,0,0,0,0,0,0,0,0,0,0,0,0,0,0,-0.105,-0.105,0,-0.1085,-0.1085,-0.1085,-0.1102,-0.1102,-0.1103,-0.1103,-0.1113,-0.1113,-0.1113,0,0,0,0,0,0,0,0,0,0,0,0,0,-0.0993,-0.0993,-0.105,-0.105,-0.1051,-0.1085,-0.1085,-0.1085,-0.1102,-0.1102,-0.1103,-0.1103,-0.1113,-0.1113,-0.1113,0,0,0,0,0,0,0,0,0,0,0,0,0,-0.1019,-0.0994,-0.105,-0.1066,-0.1068,-0.1085,-0.1085,-0.1085,-0.1102,-0.1102,-0.1103,-0.1103,-0.1113,-0.1113,-0.1113,-0.1104,0,0,-0.1113,-0.1113,0,0,0,0,0,0,0,0,-0.1017,-0.102,-0.1063,-0.1065,-0.1067,-0.1092,-0.1069,-0.1092,-0.1102,-0.1086,-0.1103,-0.1103,-0.1105,-0.1106,-0.1107,-0.1105,-0.1105,-0.1113,-0.1113,-0.1113,-0.1113,0,0,0,0,0,0,0,-0.1015,-0.1019,-0.106,-0.1064,-0.1066,-0.107,-0.1074,-0.1073,-0.109,-0.1087,-0.1089,-0.1098,-0.1106,-0.1107,-0.1108,-0.1105,-0.1113,-0.1113,-0.1113,-0.1113,-0.1141,-0.1142,0,0,0,0,0,0,-0.1017,-0.1017,-0.1059,-0.1062,-0.1046,-0.1071,-0.1075,-0.1081,-0.109,-0.1093,-0.1098,-0.1099,-0.1107,-0.1108,-0.1108,-0.1145,-0.1113,-0.1113,-0.1113,-0.1141,-0.1142,-0.1142,0,0,0,0,0,0,-0.1016,-0.102,-0.1058,-0.1043,-0.1048,-0.1072,-0.1078,-0.1082,-0.1091,-0.1099,-0.1101,-0.1105,-0.1108,-0.1108,-0.1121,-0.1144,-0.1113,-0.1113,-0.114,-0.1141,-0.1142,-0.119,0,0,0,0,0,0,-0.1014,-0.102,-0.1015,-0.1043,-0.105,-0.1073,-0.1078,-0.1082,-0.1097,-0.1099,-0.1106,-0.1107,-0.1108,-0.1121,-0.1121,-0.1144,-0.1113,-0.1139,-0.114,-0.1142,-0.1187,-0.1193,-0.1197,0,0,0,0,0,-0.1012,-0.1008,-0.1014,-0.1019,-0.1045,-0.1074,-0.1077,-0.1093,-0.1097,-0.1102,-0.1112,-0.1107,-0.113,-0.1121,-0.1121,-0.1145,-0.1138,-0.114,-0.1142,-0.1185,-0.1192,-0.1197,0,0,0,0,0,0,-0.0978,-0.1011,-0.1018,-0.1023,-0.105,-0.1078,-0.108,-0.1096,-0.1107,-0.1109,-0.1113,-0.1115,-0.1133,-0.113,-0.112,-0.1157,-0.1134,-0.1136,-0.1168,-0.1174,-0.1178,-0.118,-0.1113,0,0,0,0,0,-0.097,-0.0973,-0.1011,-0.1012,-0.1027,-0.1054,-0.1064,-0.1083,-0.1102,-0.1107,-0.1117,-0.1127,-0.1138,-0.1149,-0.115,-0.117,-0.119,-0.1186,-0.119,-0.1194,-0.1196,-0.1238,-0.1247,-0.1148,-0.1148,-0.1148,0,0,-0.0954,-0.0973,-0.0973,-0.1005,-0.1023,-0.1048,-0.106,-0.1084,-0.1108,-0.1106,-0.113,-0.1137,-0.1144,-0.1168,-0.1177,-0.1172,-0.1241,-0.1197,-0.12,-0.1199,-0.1241,-0.1251,-0.1259,-0.1149,-0.1149,-0.1149,0,0,-0.0937,-0.0947,-0.0952,-0.0978,-0.1015,-0.1039,-0.1049,-0.1089,-0.1108,-0.1134,-0.1142,-0.1169,-0.1177,-0.1202,-0.1211,-0.1242,-0.1257,-0.1241,-0.1277,-0.1319,-0.1327,-0.1335,-0.1407,-0.1421,-0.1253,-0.1253,-0.1253,0,-0.0917,-0.0934,-0.0957,-0.0978,-0.1,-0.1038,-0.1061,-0.1087,-0.1126,-0.1154,-0.1145,-0.1196,-0.1197,-0.1249,-0.1259,-0.1255,-0.1287,-0.1257,-0.1326,-0.1334,-0.1341,-0.1413,-0.1428,-0.1255,-0.1255,-0.1255,-0.1255,0,-0.0918,-0.0932,-0.0939,-0.0978,-0.1002,-0.1028,-0.1078,-0.1111,-0.1137,-0.1173,-0.1226,-0.124,-0.1278,-0.1284,-0.1277,-0.1338,-0.1349,-0.1322,-0.1314,-0.1355,-0.1428,-0.1442,-0.1259,-0.1258,-0.1257,-0.1257,0,0,-0.0876,-0.0929,-0.0932,-0.0956,-0.1009,-0.1035,-0.1081,-0.1145,-0.1198,-0.123,-0.1297,-0.1317,-0.1341,-0.1352,-0.1364,-0.1398,-0.1482,-0.1382,-0.1383,-0.1459,-0.1603,-0.1647,-0.1667,-0.1466,-0.1468,-0.1469,-0.1646,0,-0.0873,-0.0908,-0.0938,-0.0976,-0.1003,-0.1057,-0.1104,-0.1167,-0.1223,-0.1298,-0.1339,-0.1393,-0.1365,-0.1395,-0.1427,-0.1462,-0.1516,-0.1438,-0.1547,-0.1551,-0.1588,-0.1683,-0.137,-0.1504,-0.166,-0.1663,-0.1665,0,-0.0867,-0.0895,-0.0928,-0.0997,-0.1016,-0.1047,-0.1145,-0.1192,-0.1304,-0.1353,-0.1421,-0.1459,-0.153,-0.1488,-0.1591,-0.1543,-0.1577,-0.1601,-0.1608,-0.1637,-0.1621,-0.1481,-0.1524,-0.1688,-0.1686,-0.1685,-0.1683,0,-0.0834,-0.089,-0.0916,-0.0937,-0.1019,-0.1054,-0.1103,-0.1208,-0.1274,-0.1391,-0.1464,-0.1542,-0.1608,-0.1641,-0.1698,-0.1648,-0.1816,-0.1756,-0.1839,-0.1844,-0.1594,-0.1574,-0.1832,-0.1832,-0.1832,-0.1831,-0.1831,0,-0.0821,-0.0844,-0.0905,-0.0922,-0.098,-0.1037,-0.1122,-0.1192,-0.131,-0.1423,-0.1486,-0.1601,-0.1644,-0.1747,-0.1757,-0.1872,-0.1873,-0.1878,-0.1898,-0.1607,-0.1587,-0.1739,-0.1726,-0.1838,-0.1836,-0.1835,-0.1834,0,-0.0784,-0.0819,-0.0856,-0.0934,-0.0964,-0.1002,-0.1121,-0.1201,-0.1306,-0.1458,-0.15,-0.1667,-0.182,-0.1883,-0.1984,-0.198,-0.2053,-0.2087,-0.1771,-0.1753,-0.2039,-0.2026,-0.2205,-0.2208,-0.2211,-0.2213,-0.2215,0,-0.0773,-0.0783,-0.0852,-0.0888,-0.0924,-0.0997,-0.107,-0.1181,-0.128,-0.1517,-0.1603,-0.1798,-0.1973,-0.2158,-0.2109,-0.2173,-0.2202,-0.1969,-0.1816,-0.2079,-0.2081,-0.2063,-0.2047,-0.1508,-0.1504,-0.15,-0.1498,0,-0.0754,-0.0769,-0.0801,-0.0872,-0.0937,-0.1017,-0.1128,-0.1207,-0.138,-0.1548,-0.18,-0.1955,-0.2097,-0.2043,-0.2105,-0.2072,-0.1926,-0.1913,-0.2256,-0.1484,-0.1442,-0.1437,-0.144,-0.1468,-0.1471,-0.1473,-0.1475,-0.1476,-0.074,-0.0751,-0.0797,-0.0864,-0.0942,-0.1045,-0.1109,-0.128,-0.1462,-0.1717,-0.1875,-0.2018,-0.1907,-0.1892,-0.1837,-0.1745,-0.1887,-0.1734,-0.1734,-0.174,-0.165,-0.1617,-0.1661,-0.1665,-0.1668,-0.1671,-0.1674,0,-0.0737,-0.0757,-0.0805,-0.0887,-0.0965,-0.1014,-0.1163,-0.1246,-0.1479,-0.1669,-0.19,-0.1655,-0.1631,-0.1562,-0.1355,-0.1358,-0.1226,-0.1311,-0.1071,-0.11,-0.1127,-0.0996,-0.0839,-0.0838,-0.0836,-0.0835,0,0,-0.0742,-0.0767,-0.0785,-0.089,-0.0957,-0.105,-0.1121,-0.1264,-0.136,-0.1507,-0.1529,-0.1678,-0.1532,-0.1194,-0.1081,-0.0958,-0.1033,-0.09,-0.1547,-0.1293,-0.1319,-0.1328,-0.1158,0,0,0,0,0]},{"header":{"parameterUnit":"m.s-1","parameterCategory":2,"la1":30.2991,"la2":30.254,"lo1":-89.0895,"lo2":-89.0444,"dy":0.0017,"dx":0.0017,"nx":28,"ny":28,"refTime":"2025-03-18T09:00:00:Z","depth":"2","parameterNumber":3,"parameterNumberName":"V-component_of_CURRENTS"},"data":[0,0,0,0,0,0,0,0,0,0,0,0,0,0,0,0,0,0,0,0,0,0,0,0,0,0,0,0,0,0,0,0,0,0,0,0,0,0,0,0,0,0,0,0,0,0,0,0,0,0,0,0,0,0,0,0,0,0,0.0421,0.0421,0,0.047,0.0471,0.0472,0.0477,0.0476,0.0475,0.0475,0.0486,0.0487,0.0488,0,0,0,0,0,0,0,0,0,0,0,0,0,0.04,0.04,0.0421,0.0421,0.0422,0.047,0.0471,0.0472,0.0477,0.0476,0.0475,0.0475,0.0486,0.0487,0.0488,0,0,0,0,0,0,0,0,0,0,0,0,0,0.0426,0.04,0.0421,0.043,0.0431,0.047,0.0471,0.0472,0.0477,0.0476,0.0475,0.0474,0.0486,0.0487,0.0488,0.0514,0,0,0.0492,0.0493,0,0,0,0,0,0,0,0,0.0424,0.0427,0.0428,0.0429,0.043,0.0465,0.0468,0.0484,0.0477,0.0461,0.0475,0.0474,0.0476,0.0478,0.0491,0.0515,0.0515,0.0492,0.0493,0.0494,0.0494,0,0,0,0,0,0,0,0.0422,0.0425,0.0442,0.0428,0.043,0.0454,0.0457,0.0471,0.0473,0.0462,0.0462,0.0466,0.0476,0.049,0.0491,0.0516,0.0492,0.0494,0.0494,0.0495,0.0514,0.0514,0,0,0,0,0,0,0.0412,0.0423,0.044,0.0443,0.0424,0.0455,0.0458,0.0456,0.0473,0.0475,0.0467,0.0466,0.0488,0.049,0.0492,0.046,0.0494,0.0495,0.0496,0.0514,0.0514,0.0514,0,0,0,0,0,0,0.0411,0.0412,0.0438,0.0434,0.0438,0.0456,0.0454,0.0457,0.045,0.0478,0.0479,0.0454,0.0488,0.049,0.0486,0.0463,0.0496,0.0497,0.0515,0.0514,0.0514,0.0438,0,0,0,0,0,0,0.041,0.0412,0.0398,0.0433,0.0438,0.0443,0.0455,0.0459,0.0455,0.0454,0.0467,0.0469,0.0487,0.0484,0.0487,0.0465,0.0498,0.0515,0.0515,0.0514,0.0441,0.0435,0.043,0,0,0,0,0,0.0409,0.0397,0.0397,0.0399,0.0422,0.0442,0.0447,0.0458,0.0455,0.0449,0.0456,0.0467,0.0483,0.0485,0.0489,0.0467,0.0515,0.0515,0.0514,0.0443,0.0436,0.043,0,0,0,0,0,0,0.0383,0.0398,0.0398,0.0391,0.0405,0.0442,0.0435,0.0446,0.045,0.0439,0.0464,0.0466,0.0456,0.0476,0.0477,0.0474,0.0501,0.0502,0.0446,0.044,0.0435,0.0429,0.0499,0,0,0,0,0,0.0371,0.0363,0.0385,0.0378,0.0378,0.0402,0.0408,0.0416,0.043,0.043,0.0441,0.0452,0.0463,0.046,0.0477,0.0472,0.0493,0.0463,0.0457,0.0452,0.0452,0.0477,0.0474,0.0512,0.0512,0.0512,0,0,0.0362,0.0367,0.0363,0.0371,0.038,0.038,0.0402,0.0402,0.0396,0.043,0.0416,0.0434,0.046,0.0454,0.0452,0.0462,0.0447,0.0451,0.0447,0.045,0.0476,0.0473,0.0469,0.0511,0.0511,0.0512,0,0,0.0344,0.0337,0.0324,0.0331,0.0336,0.035,0.0343,0.0364,0.036,0.0359,0.038,0.0386,0.0399,0.0416,0.0426,0.0404,0.0422,0.0401,0.0361,0.0385,0.0382,0.0379,0.0374,0.0372,0.0393,0.0393,0.0393,0,0.0324,0.0316,0.0325,0.0316,0.0314,0.033,0.0318,0.0324,0.0341,0.0334,0.034,0.0367,0.0385,0.0387,0.0376,0.039,0.0395,0.0378,0.0376,0.0375,0.0374,0.0369,0.0368,0.0389,0.0389,0.039,0.039,0,0.0308,0.0292,0.0283,0.0274,0.0273,0.0265,0.0273,0.0261,0.0258,0.0272,0.0267,0.0302,0.0316,0.0322,0.0338,0.0335,0.0336,0.0368,0.0388,0.0365,0.0362,0.0361,0.0384,0.0385,0.0386,0.0387,0,0,0.0277,0.0271,0.0263,0.0244,0.0245,0.0239,0.022,0.0211,0.0186,0.0207,0.0192,0.0218,0.0236,0.025,0.0275,0.0293,0.0281,0.0314,0.0317,0.0299,0.0303,0.0378,0.0385,0.0306,0.0306,0.0306,0.0294,0,0.0252,0.0224,0.0231,0.0194,0.0175,0.0177,0.0155,0.0148,0.0146,0.0136,0.0171,0.0172,0.0208,0.0205,0.023,0.0276,0.0281,0.028,0.0337,0.0338,0.0401,0.0389,0.0375,0.037,0.0294,0.0294,0.0294,0,0.0227,0.0209,0.0172,0.0136,0.0124,0.0102,0.0057,0.0045,0.0043,0.0043,0.0059,0.0091,0.0117,0.0156,0.0214,0.0206,0.0241,0.028,0.0281,0.0382,0.0415,0.0389,0.0373,0.0294,0.0294,0.0294,0.0294,0,0.0194,0.016,0.0122,0.0114,0.0083,0.0048,0.0025,0.0008,-0.0023,-0.0015,-0.0031,0.002,0.003,0.0099,0.0169,0.0186,0.0233,0.0275,0.037,0.0374,0.0393,0.04,0.0311,0.0311,0.0311,0.0311,0.0311,0,0.0167,0.0133,0.0094,0.0072,0.0002,-0.0002,-0.0073,-0.0084,-0.0109,-0.0158,-0.0086,-0.0107,0.0015,0.0057,0.0138,0.0247,0.0207,0.0362,0.0385,0.0365,0.037,0.0339,0.0343,0.031,0.031,0.031,0.031,0,0.0146,0.0126,0.0071,0.0014,-0.0015,-0.0068,-0.0146,-0.0202,-0.0204,-0.0262,-0.0266,-0.0213,-0.0153,-0.0038,0.0068,0.0202,0.0305,0.0343,0.0301,0.0323,0.0434,0.0434,0.0473,0.0476,0.0478,0.048,0.0482,0,0.0141,0.011,0.0021,-0.0036,-0.007,-0.015,-0.0222,-0.0254,-0.0314,-0.0341,-0.0382,-0.0328,-0.03,-0.0093,0.0159,0.0341,0.0287,0.0428,0.0496,0.0437,0.0455,0.0451,0.0447,0.0462,0.0463,0.0465,0.0465,0,0.0123,0.0081,0.003,-0.0093,-0.0186,-0.0281,-0.0379,-0.0442,-0.0495,-0.054,-0.059,-0.0557,-0.0299,-0.0065,0.023,0.0341,0.0419,0.0463,0.0394,0.0449,0.0434,0.045,0.0445,0.0475,0.0474,0.0474,0.0473,0.0473,0.0097,0.0048,-0.0045,-0.0164,-0.0274,-0.0418,-0.0527,-0.0625,-0.0736,-0.0811,-0.072,-0.0625,-0.0306,0.0149,0.0327,0.0526,0.0555,0.0591,0.0583,0.0576,0.0603,0.0596,0.067,0.067,0.067,0.067,0.067,0,0.0068,-0.0013,-0.0117,-0.0275,-0.0404,-0.0468,-0.0646,-0.0763,-0.0927,-0.0875,-0.0867,-0.0491,-0.0188,0.0077,0.0454,0.0695,0.0673,0.0657,0.0573,0.0565,0.0557,0.0579,0.0641,0.0641,0.0641,0.0641,0,0,0.0044,-0.0055,-0.0117,-0.035,-0.0487,-0.0708,-0.0831,-0.0994,-0.1,-0.0985,-0.0839,-0.0552,-0.0154,0.0101,0.0357,0.0479,0.0451,0.0484,0.0496,0.0358,0.0346,0.0521,0.0549,0,0,0,0,0]}],[{"header":{"parameterUnit":"m.s-1","parameterCategory":2,"la1":30.2991,"la2":30.254,"lo1":-89.0895,"lo2":-89.0444,"dy":0.0017,"dx":0.0017,"nx":28,"ny":28,"refTime":"2025-03-18T09:00:00:Z","depth":"4","parameterNumber":2,"parameterNumberName":"U-component_of_CURRENTS"},"data":[0,0,0,0,0,0,0,0,0,0,0,0,0,0,0,0,0,0,0,0,0,0,0,0,0,0,0,0,0,0,0,0,0,0,0,0,0,0,0,0,0,0,0,0,0,0,0,0,0,0,0,0,0,0,0,0,0,0,-0.0837,-0.0837,0,-0.0887,-0.0888,-0.0889,-0.0924,-0.0923,-0.0923,-0.0923,-0.102,-0.1023,-0.1025,0,0,0,0,0,0,0,0,0,0,0,0,0,-0.0803,-0.0803,-0.0837,-0.0837,-0.0837,-0.0887,-0.0888,-0.0889,-0.0924,-0.0923,-0.0923,-0.0923,-0.1019,-0.1022,-0.1026,0,0,0,0,0,0,0,0,0,0,0,0,0,-0.0836,-0.0804,-0.0837,-0.0857,-0.0859,-0.0887,-0.0888,-0.0889,-0.0924,-0.0923,-0.0923,-0.0923,-0.1018,-0.1022,-0.1026,-0.1055,0,0,-0.1038,-0.104,0,0,0,0,0,0,0,0,-0.0834,-0.0838,-0.0854,-0.0856,-0.0858,-0.0895,-0.0911,-0.0945,-0.0924,-0.0904,-0.0923,-0.0923,-0.098,-0.0987,-0.1002,-0.1059,-0.1064,-0.1039,-0.1041,-0.1043,-0.1044,0,0,0,0,0,0,0,-0.0831,-0.0836,-0.0861,-0.0854,-0.0857,-0.0874,-0.0879,-0.0918,-0.0947,-0.0906,-0.0907,-0.0906,-0.0982,-0.0998,-0.1005,-0.1065,-0.1039,-0.1042,-0.1045,-0.1046,-0.1228,-0.123,0,0,0,0,0,0,-0.0815,-0.0833,-0.086,-0.0862,-0.084,-0.0875,-0.088,-0.0887,-0.0945,-0.0952,-0.0906,-0.0907,-0.0992,-0.1,-0.1009,-0.1149,-0.1043,-0.1047,-0.1049,-0.1226,-0.1229,-0.1231,0,0,0,0,0,0,-0.0814,-0.0817,-0.0857,-0.0845,-0.0851,-0.0875,-0.0883,-0.0888,-0.0922,-0.0944,-0.0953,-0.0935,-0.0992,-0.1003,-0.1069,-0.1149,-0.1048,-0.1052,-0.1223,-0.1227,-0.123,-0.1365,0,0,0,0,0,0,-0.0813,-0.0817,-0.0824,-0.0844,-0.0851,-0.0876,-0.0883,-0.0889,-0.0918,-0.0921,-0.0972,-0.098,-0.0992,-0.1063,-0.1073,-0.1153,-0.1055,-0.122,-0.1224,-0.1229,-0.1357,-0.1373,-0.1386,0,0,0,0,0,-0.0812,-0.0822,-0.0824,-0.0827,-0.0857,-0.0875,-0.0881,-0.09,-0.092,-0.0933,-0.0983,-0.0979,-0.1099,-0.1068,-0.108,-0.1163,-0.1218,-0.1223,-0.1228,-0.1351,-0.137,-0.1385,0,0,0,0,0,0,-0.0809,-0.0827,-0.0829,-0.0843,-0.0856,-0.088,-0.0894,-0.0914,-0.0965,-0.0981,-0.1009,-0.1021,-0.1105,-0.1108,-0.1074,-0.1224,-0.1159,-0.1167,-0.1248,-0.1266,-0.128,-0.1215,-0.1059,0,0,0,0,0,-0.0809,-0.0826,-0.0837,-0.0849,-0.0856,-0.0882,-0.0896,-0.0914,-0.0953,-0.0976,-0.1019,-0.1072,-0.1134,-0.1177,-0.121,-0.1299,-0.1237,-0.1357,-0.1372,-0.1384,-0.1338,-0.1294,-0.1299,-0.1249,-0.1249,-0.1249,0,0,-0.0812,-0.0823,-0.0832,-0.085,-0.0866,-0.0877,-0.0892,-0.0921,-0.095,-0.098,-0.1053,-0.1115,-0.1162,-0.1259,-0.13,-0.1279,-0.1381,-0.1391,-0.1401,-0.1347,-0.13,-0.1304,-0.1308,-0.1252,-0.1252,-0.1251,0,0,-0.0822,-0.0834,-0.0849,-0.086,-0.0882,-0.0892,-0.0904,-0.0947,-0.0985,-0.106,-0.1102,-0.1187,-0.1286,-0.1335,-0.1374,-0.1477,-0.1443,-0.1532,-0.1576,-0.1538,-0.154,-0.1541,-0.1528,-0.1526,-0.1557,-0.1558,-0.1558,0,-0.0819,-0.084,-0.0856,-0.0869,-0.0878,-0.0899,-0.0914,-0.0952,-0.102,-0.1058,-0.109,-0.1246,-0.1304,-0.1411,-0.1481,-0.1507,-0.149,-0.1519,-0.1553,-0.1552,-0.1551,-0.1536,-0.1532,-0.1565,-0.1564,-0.1563,-0.1563,0,-0.0834,-0.0854,-0.0864,-0.0883,-0.0895,-0.0914,-0.0948,-0.0992,-0.1051,-0.1094,-0.1212,-0.1304,-0.1389,-0.1467,-0.1526,-0.1594,-0.1589,-0.1563,-0.1504,-0.1563,-0.1545,-0.1539,-0.1575,-0.1573,-0.1571,-0.1569,0,0,-0.0809,-0.0865,-0.0866,-0.088,-0.0907,-0.0916,-0.0964,-0.1008,-0.1045,-0.1148,-0.121,-0.1378,-0.1437,-0.1481,-0.1581,-0.1597,-0.1637,-0.1613,-0.1608,-0.1588,-0.1583,-0.1507,-0.1493,-0.1635,-0.1634,-0.1633,-0.1596,0,-0.0811,-0.0845,-0.0871,-0.0893,-0.0906,-0.0938,-0.0973,-0.1022,-0.1086,-0.1152,-0.126,-0.1357,-0.1442,-0.1535,-0.1562,-0.1617,-0.1618,-0.165,-0.1534,-0.1529,-0.1444,-0.148,-0.1628,-0.159,-0.1589,-0.1587,-0.1587,0,-0.0801,-0.0829,-0.0861,-0.0904,-0.0911,-0.0925,-0.0971,-0.1011,-0.1091,-0.1158,-0.1254,-0.1335,-0.1447,-0.1477,-0.1532,-0.1565,-0.1571,-0.1585,-0.1583,-0.1436,-0.1438,-0.1503,-0.1574,-0.1575,-0.1576,-0.1577,-0.1577,0,-0.076,-0.0811,-0.0839,-0.0852,-0.0904,-0.0927,-0.095,-0.1014,-0.1053,-0.1157,-0.1215,-0.1315,-0.1394,-0.1404,-0.1493,-0.1519,-0.1494,-0.1509,-0.1422,-0.1419,-0.1437,-0.1435,-0.1453,-0.1454,-0.1454,-0.1454,-0.1454,0,-0.0734,-0.0753,-0.0826,-0.0836,-0.0859,-0.0905,-0.0932,-0.0982,-0.105,-0.1092,-0.1222,-0.1283,-0.1377,-0.141,-0.145,-0.1425,-0.1445,-0.1401,-0.1386,-0.1508,-0.1514,-0.1436,-0.1435,-0.1452,-0.1453,-0.1453,-0.1453,0,-0.0677,-0.0729,-0.076,-0.0826,-0.0839,-0.0853,-0.0898,-0.0915,-0.1011,-0.1068,-0.1113,-0.1248,-0.1304,-0.1363,-0.1379,-0.1362,-0.1343,-0.131,-0.1451,-0.1449,-0.1309,-0.1315,-0.1202,-0.1199,-0.1196,-0.1193,-0.1191,0,-0.0652,-0.0665,-0.0735,-0.0746,-0.0774,-0.08,-0.0804,-0.0879,-0.0896,-0.1045,-0.106,-0.1164,-0.1247,-0.1209,-0.127,-0.1268,-0.126,-0.1232,-0.1257,-0.1277,-0.1275,-0.1286,-0.1296,-0.1187,-0.1186,-0.1185,-0.1185,0,-0.0597,-0.0632,-0.0662,-0.0688,-0.0698,-0.07,-0.0721,-0.0725,-0.082,-0.0921,-0.1,-0.1065,-0.1106,-0.1149,-0.1143,-0.1149,-0.1248,-0.1202,-0.1208,-0.1231,-0.1257,-0.126,-0.1274,-0.1175,-0.1176,-0.1177,-0.1178,0,-0.0554,-0.0563,-0.0607,-0.0621,-0.0629,-0.0607,-0.0623,-0.0648,-0.0679,-0.0844,-0.0857,-0.0994,-0.1082,-0.1084,-0.1089,-0.108,-0.1077,-0.1049,-0.1063,-0.1075,-0.1054,-0.107,-0.089,0,0,0,0,0,-0.0505,-0.0514,-0.0531,-0.0541,-0.0545,-0.0548,-0.0569,-0.0593,-0.0683,-0.0705,-0.0783,-0.0836,-0.0901,-0.096,-0.0927,-0.1017,-0.1062,-0.0973,-0.1031,-0.1119,-0.1131,-0.1121,0,0,0,0,0,0,-0.0476,-0.0494,-0.0513,-0.0471,-0.046,-0.0443,-0.0454,-0.0513,-0.0524,-0.0643,-0.0673,-0.0779,-0.0835,-0.0912,-0.0914,-0.0926,-0.0942,-0.104,-0.1037,-0.1112,-0.1123,-0.1132,-0.1126,0,0,0,0,0]},{"header":{"parameterUnit":"m.s-1","parameterCategory":2,"la1":30.2991,"la2":30.254,"lo1":-89.0895,"lo2":-89.0444,"dy":0.0017,"dx":0.0017,"nx":28,"ny":28,"refTime":"2025-03-18T09:00:00:Z","depth":"4","parameterNumber":3,"parameterNumberName":"V-component_of_CURRENTS"},"data":[0,0,0,0,0,0,0,0,0,0,0,0,0,0,0,0,0,0,0,0,0,0,0,0,0,0,0,0,0,0,0,0,0,0,0,0,0,0,0,0,0,0,0,0,0,0,0,0,0,0,0,0,0,0,0,0,0,0,0.0063,0.0063,0,0.0077,0.0078,0.0078,0.0096,0.0096,0.0096,0.0097,0.0113,0.0113,0.0113,0,0,0,0,0,0,0,0,0,0,0,0,0,0.0081,0.008,0.0063,0.0063,0.0063,0.0077,0.0078,0.0078,0.0096,0.0096,0.0097,0.0097,0.0113,0.0113,0.0113,0,0,0,0,0,0,0,0,0,0,0,0,0,0.0083,0.008,0.0063,0.0073,0.0074,0.0077,0.0078,0.0078,0.0096,0.0096,0.0097,0.0097,0.0113,0.0113,0.0113,0.011,0,0,0.0114,0.0115,0,0,0,0,0,0,0,0,0.0083,0.0082,0.0071,0.0072,0.0073,0.0084,0.009,0.0088,0.0096,0.0089,0.0097,0.0097,0.0103,0.0104,0.0107,0.011,0.0111,0.0114,0.0115,0.0115,0.0115,0,0,0,0,0,0,0,0.0083,0.0082,0.0069,0.0071,0.0073,0.0087,0.0088,0.009,0.0094,0.0089,0.009,0.009,0.0103,0.0107,0.0108,0.0111,0.0114,0.0115,0.0115,0.0115,0.0132,0.0132,0,0,0,0,0,0,0.0077,0.0081,0.0069,0.007,0.0078,0.0087,0.0087,0.0081,0.0094,0.0096,0.009,0.0091,0.0106,0.0107,0.0108,0.0176,0.0115,0.0115,0.0115,0.0132,0.0132,0.0132,0,0,0,0,0,0,0.0077,0.0075,0.0068,0.0076,0.0076,0.0086,0.0079,0.0081,0.0089,0.0095,0.0097,0.0095,0.0106,0.0108,0.0108,0.0174,0.0115,0.0116,0.0131,0.0132,0.0132,0.0265,0,0,0,0,0,0,0.0077,0.0075,0.0066,0.0075,0.0075,0.0064,0.0079,0.0081,0.0088,0.0089,0.01,0.0102,0.0107,0.0108,0.0109,0.0173,0.0116,0.0131,0.0131,0.0132,0.0261,0.027,0.0278,0,0,0,0,0,0.0078,0.0068,0.0065,0.0064,0.0063,0.0063,0.0064,0.0074,0.0087,0.0083,0.0094,0.0102,0.0112,0.0108,0.0109,0.0176,0.0131,0.0131,0.0132,0.0257,0.0268,0.0278,0,0,0,0,0,0,0.0079,0.0068,0.0066,0.0055,0.0054,0.0066,0.0065,0.0075,0.0081,0.0085,0.0097,0.0099,0.0116,0.011,0.0106,0.0173,0.0125,0.0126,0.022,0.0231,0.0239,0.0213,0.0116,0,0,0,0,0,0.0071,0.0061,0.0055,0.005,0.0046,0.0056,0.0058,0.0063,0.0071,0.0075,0.0091,0.0104,0.0119,0.0145,0.0131,0.0178,0.0154,0.0217,0.0226,0.0235,0.0209,0.0194,0.0201,0.0134,0.0134,0.0134,0,0,0.0074,0.0066,0.0062,0.0049,0.0052,0.004,0.0059,0.0059,0.0055,0.0075,0.0085,0.0115,0.0122,0.0167,0.018,0.0181,0.0256,0.0235,0.0243,0.0212,0.0196,0.0202,0.0208,0.0134,0.0134,0.0134,0,0,0.0079,0.0063,0.0055,0.0044,0.0038,0.0034,0.0033,0.0045,0.0053,0.0062,0.0087,0.0135,0.0159,0.0197,0.0216,0.0254,0.0274,0.0288,0.0357,0.0347,0.0352,0.0357,0.0408,0.0415,0.033,0.033,0.033,0,0.0082,0.0066,0.0055,0.004,0.003,0.003,0.0017,0.0018,0.0034,0.0039,0.0063,0.0121,0.0158,0.0218,0.0283,0.0276,0.0302,0.0334,0.0361,0.0364,0.0367,0.0417,0.0424,0.0337,0.0336,0.0335,0.0335,0,0.0075,0.0059,0.0055,0.0028,0.0012,0.0004,-0.0009,-0.0011,0.0008,0.0019,0.006,0.0124,0.0167,0.0231,0.0298,0.0371,0.0399,0.0352,0.0344,0.0382,0.0433,0.0438,0.0346,0.0344,0.0342,0.034,0,0,0.0089,0.0056,0.0054,0.0034,0.0003,-0.0012,-0.0032,-0.0048,-0.0062,-0.0008,-0.0006,0.0123,0.0187,0.0211,0.0315,0.038,0.0497,0.0434,0.0431,0.0504,0.0549,0.0524,0.0527,0.0488,0.0488,0.0488,0.0606,0,0.0088,0.0061,0.0042,0.0007,-0.0014,-0.0039,-0.0063,-0.008,-0.0077,-0.0079,0.0002,0.0039,0.0169,0.0247,0.033,0.0426,0.0505,0.0473,0.0481,0.0481,0.0469,0.0527,0.0487,0.061,0.061,0.0611,0.0612,0,0.008,0.0061,0.0034,-0.0017,-0.003,-0.0053,-0.0106,-0.0127,-0.0143,-0.0132,-0.0074,-0.0026,0.012,0.0183,0.0369,0.0364,0.0477,0.0549,0.0552,0.0467,0.0461,0.054,0.0619,0.0619,0.0618,0.0618,0.0617,0,0.0082,0.0047,0.0025,0.0008,-0.0045,-0.0064,-0.0095,-0.0132,-0.0161,-0.0157,-0.0159,-0.0049,0.0026,0.0151,0.0369,0.0385,0.0529,0.0523,0.0591,0.0593,0.0522,0.0515,0.0596,0.0596,0.0596,0.0595,0.0595,0,0.0072,0.0052,0.0026,0.0008,-0.0034,-0.0068,-0.0121,-0.0144,-0.0185,-0.022,-0.0157,-0.0132,0.0028,0.0141,0.0321,0.0491,0.0481,0.0603,0.0606,0.0586,0.0584,0.0531,0.0522,0.06,0.0599,0.0598,0.0597,0,0.0068,0.0057,0.0024,-0.0018,-0.0035,-0.0066,-0.0142,-0.0188,-0.0207,-0.0253,-0.0242,-0.0178,-0.002,0.0133,0.0329,0.0422,0.057,0.0623,0.0638,0.064,0.0665,0.0661,0.0698,0.0698,0.0698,0.0698,0.0698,0,0.0063,0.005,0.0009,-0.0015,-0.0033,-0.0085,-0.0134,-0.0188,-0.0239,-0.0263,-0.0281,-0.0171,-0.0097,0.0153,0.032,0.0568,0.0601,0.0664,0.0641,0.0668,0.0669,0.0665,0.0662,0.0697,0.0697,0.0697,0.0697,0,0.0048,0.0042,0.0015,-0.0025,-0.0069,-0.0135,-0.0199,-0.0245,-0.0309,-0.032,-0.0301,-0.0195,-0.005,0.0145,0.0325,0.0509,0.0606,0.0663,0.0664,0.0643,0.0667,0.0667,0.0664,0.0697,0.0697,0.0697,0.0697,0,0.0043,0.0023,-0.0003,-0.0043,-0.0096,-0.0167,-0.0211,-0.0265,-0.0315,-0.0351,-0.0328,-0.0186,-0.0104,0.0117,0.0298,0.0452,0.049,0.0519,0.0529,0.0531,0.0436,0.0439,0.0404,0,0,0,0,0,0.0041,0.0018,-0.0024,-0.0073,-0.0126,-0.0153,-0.0251,-0.0298,-0.0355,-0.0349,-0.0351,-0.0212,0.0004,0.0103,0.0257,0.0309,0.0526,0.0489,0.0566,0.0693,0.0694,0.0605,0,0,0,0,0,0,0.0036,0.0005,-0.0021,-0.0084,-0.0114,-0.0186,-0.0246,-0.0293,-0.0299,-0.0326,-0.0199,-0.0172,0.0062,-0.0051,0.0274,0.0316,0.0378,0.0593,0.0595,0.0692,0.0693,0.0694,0.0603,0,0,0,0,0]}]]